Terminal Aerodrome Forecast
Issued by NWS

Home | Current Version | Previous Version | Text Only | Print | Product List | Glossary Off
Versions: 1 2 3 4 5 6 7 8 9 10 11 12 13 14 15 16 17 18 19 20 21 22

000
FTUS42 KMHX 031204 AAA
TAFOAJ
TAF AMD
KOAJ 031204Z 0312/0412 19004KT 2SM BR BKN010
     FM031400 17014G20KT P6SM SCT025 SCT100
     FM031800 18018G26KT 6SM SHRA BKN045
     FM040100 19014G22KT 4SM SHRA BR VCTS OVC020CB
      AMD LTD TO CLD VIS AND WIND=

USA.gov is the U.S. government's official web portal to all federal, state and local government web resources and services.